Miscellaneous Local Product
Issued by NWS North Platte, NE

Home | Current Version | Previous Version | Graphics & Text | Print | Product List | Glossary On
Versions: 1 2 3 4 5 6 7 8 9 10 11 12 13 14 15 16 17 18 19 20 21 22 23 24 25 26 27 28 29 30 31 32 33 34 35 36 37 38 39 40 41 42 43 44 45 46 47 48 49 50
000
AXUS43 KLBF 261810
MISLBF


WESTERN AND NORTH CENTRAL NEBRASKA HOURLY WEATHER ROUNDUP
NATIONAL WEATHER SERVICE NORTH PLATTE NE
100 PM CDT WED AUG 26 2015

NOTE: "FAIR" INDICATES FEW OR NO CLOUDS BELOW 12,000 FEET WITH NO
SIGNIFICANT WEATHER AND/OR OBSTRUCTIONS TO VISIBILITY.

NOTE: STATIONS NOT REPORTING VARIABLES SUCH AS SKY/WEATHER OR
PRESSURE ARE PROVIDED BY THE NEBRASKA DEPARTMENT OF
ROADS...RAWS...AND APRS NETWORKS...AND ARE NOT UNDER
NATIONAL WEATHER SERVICE QUALITY CONTROL.

...OBSERVATIONS IN AND NEAR THE EASTERN PANHANDLE OF NEBRASKA...

CITY           SKY/WX    TMP DP  RH WIND       PRES   REMARKS
PINE RIDGE     MOSUNNY   93  58  30 NE10      30.07F HX  92
CHADRON        MOSUNNY   92  60  34 VRB6      30.05F HX  91
ALLIANCE       SUNNY     90  58  33 S12       30.11F
SIDNEY         SUNNY     93  47  20 S13G18    30.15F
CRESCENT LAKE    N/A     92  62  36 S7          N/A  HX  92
BIG SPRINGS      N/A     90  66  45 SE5         N/A  HX  92
$$

...OBSERVATIONS IN NORTH CENTRAL NEBRASKA...

CITY           SKY/WX    TMP DP  RH WIND       PRES   REMARKS
VALENTINE      MOSUNNY   90  65  43 SE7       30.06F HX  92
THEDFORD       SUNNY     87  67  51 S12       30.10F HX  90
AINSWORTH      SUNNY     86  68  54 S10       30.09F
O`NEILL        SUNNY     80  65  58 S10       30.11F
ORD            SUNNY     83  64  52 S15G21    30.10F
BROKEN BOW     SUNNY     87  67  51 S17G26    30.11F HX  90
SPRINGVIEW       N/A     86  70  59 CALM        N/A  HX  91
SARGENT          N/A     86  67  53 CALM        N/A
CHAMBERS         N/A     86  64  48 S6          N/A
EWING            N/A     79  66  64 SE6G13      N/A
$$

...OBSERVATIONS IN SOUTHWEST NEBRASKA AND FAR NORTHEAST COLORADO...

CITY           SKY/WX    TMP DP  RH WIND       PRES   REMARKS
WRAY           FAIR     100  47  17 SE5       30.12F HX  96
HOLYOKE        FAIR      95  63  34 SE9       30.12F HX  96
IMPERIAL       SUNNY     91  61  36 SE10      30.11F HX  91
OGALLALA       SUNNY     89  64  44 SE12      30.11F HX  90
NORTH PLATTE   SUNNY     86  67  52 SE9       30.09F
MCCOOK         SUNNY     89  65  44 SE13      30.10F HX  91
LEXINGTON      SUNNY     82  72  70 S14       30.11F
PAXTON           N/A     86  71  61 SE7         N/A  HX  92
BRADY            N/A     84  70  63 CALM        N/A
CALLAWAY         N/A     82  75  78 SE16        N/A
$$

...OBSERVATIONS IN CENTRAL LINCOLN COUNTY AREA...

CITY           SKY/WX    TMP DP  RH WIND       PRES   REMARKS
N.P. AIRPORT   SUNNY     86  67  52 SE9       30.09F
N.P. DOWNTOWN    N/A     86  68  55 S6          N/A
$$

...SOME OBSERVATIONS FROM AROUND THE REGION...

CITY           SKY/WX    TMP DP  RH WIND       PRES   REMARKS
DENVER         PTSUNNY   92  36  14 SW10      30.21F
LARAMIE        MOSUNNY   84  36  18 N7        30.36F
CHEYENNE       MOSUNNY   89  37  16 SW5       30.26F
SCOTTSBLUFF    SUNNY     84  59  42 E8        30.11F
RAPID CITY     PTSUNNY   79  63  57 NE7       30.09S
PIERRE         PTSUNNY   77  63  61 SE10      30.01F
WINNER         FAIR      85  62  46 S8        30.04F
SIOUX FALLS    PTSUNNY   71  56  58 S14       30.15F
OMAHA          PTSUNNY   72  58  61 SE20      30.14F
GRAND ISLAND   FAIR      82  65  56 SE13      30.13F
KANSAS CITY    FAIR      78  56  46 S7        30.19F
WICHITA        FAIR      85  69  58 S8        30.13F
HAYS           FAIR      91  64  40 S13G18    30.10F HX  93
LIBERAL        FAIR      93  64  38 S7        30.18F HX  95
GOODLAND       MOSUNNY   96  46  18 SW16      30.14F HX  92
$$



USA.gov is the U.S. government's official web portal to all federal, state and local government web resources and services.